Tracking 19177 objects as of 24-May-2018
HD Live streaming from Space Station
objects crossing your sky now

FENGYUN 1C DEB

Track FENGYUN 1C DEB now!
10-day predictions


NORAD ID: 30419
Int'l Code: 1999-025AEJ
Perigee: 820.1 km
Apogee: 901.1 km
Inclination: 99.3 °
Period: 102.0 minutes
Semi major axis: 7231 km
RCS: 0.025 m2 (small)
Launch date: May 10, 1999
Source: People's Republic of China (PRC)
Launch site: Taiyaun Space Center, China (TSC)

Note: This is SATELLITE DEBRIS
aabbcc
Your satellite tracking list
Your tracking list is empty




NASA's NSSDC Master Catalog

Two Line Element Set (TLE):
1 30419U 99025AEJ 18143.44900084 +.00000279 +00000-0 +17695-3 0  9997
2 30419 099.3305 315.1141 0055964 199.1075 214.6224 14.11727177583527
Source of the keplerian elements: AFSPC